Regional Weather Roundup
Issued by NWS Albany, NY

Home | Current Version | Previous Version | Text Only | Print | Product List | Glossary Off
Versions: 1 2 3 4 5 6 7 8 9 10 11 12 13 14 15 16 17 18 19 20 21 22 23 24 25 26 27 28 29 30 31 32 33 34 35 36 37 38 39 40 41 42 43 44 45 46 47 48 49 50

000
ASUS41 KALY 210910
RWRALY

NEW YORK STATE HOURLY WEATHER ROUNDUP
NATIONAL WEATHER SERVICE ALBANY NY
500 AM EDT THU AUG 21 2014

NOTE: "FAIR" INDICATES FEW OR NO CLOUDS BELOW 12,000 FEET WITH NO
SIGNIFICANT WEATHER AND/OR NO OBSTRUCTIONS TO VISIBILITY.

NYZ032-033-038>043-046>054-057>066-NYZ062>081-211000-
EAST


CITY           SKY/WX    TMP DP  RH WIND       PRES   REMARKS
ALBANY         CLOUDY    68  63  84 SE6       30.01S
GLENS FALLS    RAIN      66  64  93 S6        30.02S FOG
POUGHKEEPSIE   LGT RAIN  65  62  90 SE5       30.02S
NEWBURGH       CLOUDY    64  63  94 CALM      30.04F
MONTGOMERY     CLOUDY    64  62  93 CALM      30.03S
WHITE PLAINS   MOCLDY    67  64  90 CALM      30.04R
ISLIP          PTCLDY    65  61  87 CALM      30.03R
NEW YORK CITY  CLOUDY    73  61  65 CALM      30.02S
CENTRAL PARK   LGT RAIN  69  62  78 CALM      30.06R
$$

NYZ005>009-017-018-044>046-055-056-211000-
CENTRAL


CITY           SKY/WX    TMP DP  RH WIND       PRES   REMARKS
FULTON         MOCLDY    68  66  93 CALM      29.94S FOG
SYRACUSE       MOCLDY    64  64 100 CALM      29.94S FOG
ROME           CLOUDY    68  67  96 E8        29.98S
ELMIRA         FOG       63  63 100 CALM      29.97R VSB<1/4
BINGHAMTON     CLOUDY    65  64  97 S5        30.00S
MONTICELLO     MOCLDY    63  61  94 SE5       30.06S
$$

NYZ026>034-041>043-211000-
NORTH


CITY           SKY/WX    TMP DP  RH WIND       PRES   REMARKS
WATERTOWN      MOCLDY    66  62  87 NE3       29.93F
FORT DRUM      NOT AVBL
MASSENA        LGT RAIN  67  67 100 NE5       29.98S
SARANAC LAKE   CLOUDY    62  62 100 NE3       30.01S
PLATTSBURGH    LGT RAIN  65  63  93 S5        30.00R
$$

NYZ001>004-010>016-019>021-211000-
WEST


CITY           SKY/WX    TMP DP  RH WIND       PRES   REMARKS
NIAGARA FALLS  PTCLDY    68  66  93 SW8       29.92R
BUFFALO        MOCLDY    70  64  81 SW8       29.93R
DUNKIRK        MOCLDY    69  64  84 SW7       29.94S
JAMESTOWN      CLEAR     63  61  94 S5        30.00R
WELLSVILLE     CLOUDY    65  62  90 SW7       30.03R
ROCHESTER      PTCLDY    65  63  93 SW3       29.93S
PENN YAN       PTCLDY    67  66  97 SW6       29.95F
$$

             KEY
       WCI = WIND CHILL INDEX
       VSB = VISIBILITY
       HX  = HEAT INDEX
$$


USA.gov is the U.S. government's official web portal to all federal, state and local government web resources and services.